Weather History for KBCB - March, 2014

Change the Weather History Date:

Thursday, March 6, 2014

  Actual Average Record
Temperature  
Mean Temperature 30 °F 39 °F  
Max Temperature 35 °F 50 °F 76 °F (1976)
Min Temperature 25 °F 27 °F 3 °F (2015)
Degree Days  
Heating Degree Days 35 26  
Month to date heating degree days 184 162  
Since 1 July heating degree days 4365 4210  
Cooling Degree Days 0 0  
Month to date cooling degree days 0 0  
Year to date cooling degree days 0 0  
Moisture  
Dew Point 20 °F    
Average Humidity 69    
Maximum Humidity 85    
Minimum Humidity 52    
Precipitation  
Precipitation T in 0.10 in 1.50 in (2011)
Month to date precipitation 0.87 0.60  
Year to date precipitation 6.50 6.49  
Snow  
Snow T in - - ()
Month to date snowfall 1.1  
Since 1 July snowfall 28.2  
Snow Depth 0.00 in    
Sea Level Pressure  
Sea Level Pressure 30.27 in    
Wind  
Wind Speed 9 mph (East)    
Max Wind Speed 15 mph    
Max Gust Speed 21 mph    
Visibility 10 miles    
Events Snow    
T = Trace of Precipitation, MM = Missing Value Source: NWS Daily Summary

Daily Weather History Graph

Daily Weather History Graph

Search for Another Location

Airport or City:

Trip Planner

Search our weather history database for the weather conditions in past years. The results will help you decide how hot, cold, wet, or windy it might be!

Date:

Astronomy

Mar. 06, 2014 Rise Set
Actual Time 6:45 AM EST 6:20 PM EST
Civil Twilight 6:19 AM EST 6:46 PM EST
Nautical Twilight 5:49 AM EST 7:16 PM EST
Astronomical Twilight 5:19 AM EST 7:46 PM EST
Moon 10:00 AM EST (3/6) No Moon Set
Length of Visible Light 12h 26m
Length of Day
11h 34m
Waxing Crescent, 32% of the Moon is Illuminated
Mar 6
Waxing Crescent
Mar 8
First Quarter
Mar 16
Full
Mar 23
Last Quarter
Mar 30
New

Hourly Weather History & Observations

Time (EST) Temp. Windchill Dew Point Humidity Pressure Visibility Wind Dir Wind Speed Gust Speed Precip Events Conditions
12:15 AM 32.0 °F 25.6 °F 21.2 °F 64% 30.27 in 10.0 mi East 6.9 mph - N/A   Clear
12:30 AM 32.0 °F 25.6 °F 21.2 °F 64% 30.27 in 10.0 mi East 6.9 mph - N/A   Clear
12:55 AM 32.0 °F 26.4 °F 21.2 °F 64% 30.27 in 10.0 mi East 5.8 mph - N/A   Clear
1:15 AM 30.2 °F 26.7 °F 21.2 °F 69% 30.26 in 10.0 mi East 3.5 mph - N/A   Clear
1:35 AM 30.2 °F 22.6 °F 21.2 °F 69% 30.26 in 10.0 mi East 8.1 mph - N/A   Clear
1:55 AM 30.2 °F 23.4 °F 21.2 °F 69% 30.26 in 10.0 mi East 6.9 mph - N/A   Clear
2:15 AM 30.2 °F 23.4 °F 19.4 °F 64% 30.26 in 10.0 mi East 6.9 mph - N/A   Clear
2:35 AM 30.2 °F 24.3 °F 19.4 °F 64% 30.25 in 10.0 mi East 5.8 mph - N/A   Clear
2:55 AM 30.2 °F 23.4 °F 17.6 °F 60% 30.26 in 10.0 mi East 6.9 mph - N/A   Clear
3:15 AM 30.2 °F 22.6 °F 19.4 °F 64% 30.26 in 10.0 mi East 8.1 mph - N/A   Clear
3:35 AM 30.2 °F 22.6 °F 19.4 °F 64% 30.26 in 10.0 mi East 8.1 mph - N/A   Clear
3:55 AM 30.2 °F 22.6 °F 17.6 °F 60% 30.28 in 10.0 mi East 8.1 mph - N/A   Clear
4:15 AM 28.4 °F 23.3 °F 17.6 °F 64% 30.29 in 10.0 mi East 4.6 mph - N/A   Clear
4:35 AM 28.4 °F 24.6 °F 19.4 °F 69% 30.29 in 10.0 mi East 3.5 mph - N/A   Clear
4:55 AM 28.4 °F 20.4 °F 17.6 °F 64% 30.30 in 10.0 mi East 8.1 mph - N/A   Clear
5:10 AM 28.4 °F 21.2 °F 17.6 °F 64% 30.30 in 10.0 mi East 6.9 mph - N/A   Clear
5:35 AM 26.6 °F 20.0 °F 17.6 °F 69% 30.30 in 10.0 mi East 5.8 mph - N/A   Clear
5:55 AM 26.6 °F 18.2 °F 17.6 °F 69% 30.30 in 10.0 mi East 8.1 mph - N/A   Clear
6:15 AM 26.6 °F 15.7 °F 17.6 °F 69% 30.30 in 10.0 mi East 12.7 mph 17.3 mph N/A   Clear
6:35 AM 26.6 °F 16.8 °F 17.6 °F 69% 30.31 in 10.0 mi East 10.4 mph 17.3 mph N/A   Clear
6:55 AM 26.6 °F 16.8 °F 15.8 °F 64% 30.32 in 10.0 mi East 10.4 mph - N/A   Clear
7:15 AM 26.6 °F 17.5 °F 15.8 °F 64% 30.33 in 10.0 mi East 9.2 mph - N/A   Clear
7:35 AM 26.6 °F 16.2 °F 15.8 °F 64% 30.33 in 10.0 mi East 11.5 mph - N/A   Clear
7:55 AM 26.6 °F 17.5 °F 15.8 °F 64% 30.33 in 10.0 mi East 9.2 mph - N/A   Clear
8:15 AM 28.4 °F 19.1 °F 15.8 °F 59% 30.34 in 10.0 mi ENE 10.4 mph 17.3 mph N/A   Clear
8:35 AM 28.4 °F 17.5 °F 15.8 °F 59% 30.33 in 10.0 mi East 13.8 mph 18.4 mph N/A   Clear
8:55 AM 28.4 °F 19.1 °F 15.8 °F 59% 30.35 in 10.0 mi ENE 10.4 mph 17.3 mph N/A   Clear
9:15 AM 28.4 °F 19.1 °F 15.8 °F 59% 30.37 in 10.0 mi East 10.4 mph 17.3 mph N/A   Clear
9:35 AM 30.2 °F 21.3 °F 17.6 °F 60% 30.36 in 10.0 mi ENE 10.4 mph - N/A   Clear
9:50 AM 30.2 °F 20.8 °F 17.6 °F 60% 30.36 in 10.0 mi East 11.5 mph 17.3 mph N/A   Clear
10:15 AM 30.2 °F 19.8 °F 17.6 °F 60% 30.35 in 10.0 mi ENE 13.8 mph - N/A   Clear
10:35 AM 30.2 °F 20.8 °F 17.6 °F 60% 30.36 in 10.0 mi ENE 11.5 mph - N/A   Clear
10:55 AM 32.0 °F 23.6 °F 17.6 °F 55% 30.34 in 10.0 mi ENE 10.4 mph 16.1 mph N/A   Clear
11:15 AM 32.0 °F 23.0 °F 19.4 °F 60% 30.33 in 10.0 mi ENE 11.5 mph 16.1 mph N/A   Clear
11:35 AM 33.8 °F 24.8 °F 19.4 °F 56% 30.32 in 10.0 mi East 12.7 mph 19.6 mph N/A   Clear
11:55 AM 33.8 °F 24.3 °F 19.4 °F 56% 30.31 in 10.0 mi East 13.8 mph 19.6 mph N/A   Clear
12:15 PM 33.8 °F 23.9 °F 19.4 °F 56% 30.30 in 10.0 mi East 15.0 mph - N/A   Clear
12:35 PM 33.8 °F 24.8 °F 19.4 °F 56% 30.30 in 10.0 mi ESE 12.7 mph 19.6 mph N/A   Clear
12:55 PM 33.8 °F 23.9 °F 21.2 °F 60% 30.30 in 10.0 mi East 15.0 mph 20.7 mph N/A   Clear
1:15 PM 33.8 °F 24.8 °F 19.4 °F 56% 30.29 in 10.0 mi East 12.7 mph 18.4 mph N/A   Clear
1:35 PM 33.8 °F 25.3 °F 19.4 °F 56% 30.27 in 10.0 mi ENE 11.5 mph 17.3 mph N/A   Clear
1:55 PM 35.6 °F 28.0 °F 21.2 °F 56% 30.26 in 10.0 mi East 10.4 mph 16.1 mph N/A   Clear
2:15 PM 35.6 °F 29.2 °F 21.2 °F 56% 30.25 in 10.0 mi ENE 8.1 mph - N/A   Clear
2:35 PM 35.6 °F 28.0 °F 19.4 °F 52% 30.25 in 10.0 mi East 10.4 mph 16.1 mph N/A   Clear
2:55 PM 35.6 °F 28.0 °F 19.4 °F 52% 30.24 in 10.0 mi East 10.4 mph 17.3 mph N/A   Clear
3:15 PM 35.6 °F 28.6 °F 19.4 °F 52% 30.24 in 10.0 mi East 9.2 mph - N/A   Clear
3:35 PM 35.6 °F 27.5 °F 19.4 °F 52% 30.23 in 10.0 mi East 11.5 mph 18.4 mph N/A   Clear
3:55 PM 35.6 °F 28.6 °F 21.2 °F 56% 30.23 in 10.0 mi East 9.2 mph 16.1 mph N/A   Clear
4:15 PM 35.6 °F 26.6 °F 21.2 °F 56% 30.23 in 10.0 mi East 13.8 mph 17.3 mph N/A   Clear
4:35 PM 33.8 °F 25.3 °F 19.4 °F 56% 30.22 in 10.0 mi East 11.5 mph - N/A   Clear
4:55 PM 33.8 °F 27.7 °F 19.4 °F 56% 30.22 in 10.0 mi ENE 6.9 mph - N/A   Clear
5:15 PM 33.8 °F 26.4 °F 19.4 °F 56% 30.22 in 10.0 mi East 9.2 mph - N/A   Clear
5:35 PM 33.8 °F 26.4 °F 19.4 °F 56% 30.23 in 10.0 mi East 9.2 mph - N/A   Clear
5:55 PM 33.8 °F 26.4 °F 19.4 °F 56% 30.24 in 10.0 mi East 9.2 mph - N/A   Clear
6:15 PM 32.0 °F 23.0 °F 19.4 °F 60% 30.23 in 10.0 mi East 11.5 mph 20.7 mph N/A   Clear
6:35 PM 32.0 °F 21.6 °F 21.2 °F 64% 30.23 in 10.0 mi ENE 15.0 mph - N/A   Scattered Clouds
6:55 PM 32.0 °F 24.2 °F 21.2 °F 64% 30.23 in 10.0 mi East 9.2 mph - N/A   Mostly Cloudy
7:15 PM 32.0 °F 27.5 °F 21.2 °F 64% 30.24 in 10.0 mi East 4.6 mph - N/A   Overcast
7:35 PM 30.2 °F 21.9 °F 21.2 °F 69% 30.23 in 10.0 mi East 9.2 mph - N/A   Overcast
7:55 PM 30.2 °F 21.9 °F 21.2 °F 69% 30.22 in 10.0 mi ENE 9.2 mph 17.3 mph N/A   Overcast
8:15 PM 30.2 °F 20.8 °F 23.0 °F 75% 30.21 in 10.0 mi East 11.5 mph - N/A   Overcast
8:35 PM 30.2 °F 20.8 °F 21.2 °F 69% 30.21 in 10.0 mi East 11.5 mph - N/A   Overcast
8:55 PM 30.2 °F 21.3 °F 23.0 °F 75% 30.21 in 10.0 mi East 10.4 mph - N/A   Overcast
9:15 PM 30.2 °F 22.6 °F 23.0 °F 75% 30.20 in 10.0 mi ENE 8.1 mph - N/A   Overcast
9:35 PM 30.2 °F 22.6 °F 23.0 °F 75% 30.21 in 10.0 mi NE 8.1 mph - N/A   Overcast
9:55 PM 30.2 °F 22.6 °F 24.8 °F 80% 30.20 in 10.0 mi ENE 8.1 mph 16.1 mph N/A   Overcast
10:15 PM 30.2 °F 21.3 °F 24.8 °F 80% 30.20 in 10.0 mi ENE 10.4 mph 17.3 mph N/A   Overcast
10:35 PM 28.4 °F 19.1 °F 24.8 °F 86% 30.19 in 10.0 mi ENE 10.4 mph 16.1 mph N/A   Overcast
10:55 PM 28.4 °F 19.7 °F 24.8 °F 86% 30.19 in 10.0 mi ENE 9.2 mph - N/A   Overcast
11:15 PM 28.4 °F 19.1 °F 24.8 °F 86% 30.18 in 7.0 mi ENE 10.4 mph - N/A Snow Light Snow
11:35 PM 28.4 °F 19.1 °F 24.8 °F 86% 30.17 in 10.0 mi ENE 10.4 mph - N/A Snow Light Snow
11:55 PM 28.4 °F 19.7 °F 24.8 °F 86% 30.16 in 10.0 mi NE 9.2 mph 17.3 mph N/A Snow Light Snow